星链-3842 (STARLINK-3842 )

导读

STARLINK-3842是美国SpaceX公司星链(Starlink)星座中的一颗卫星,于2022年5月6日发射入轨。星链星座是全球知名的低轨巨型卫星星座,旨在为全球提供高速卫星互联网接入服务,可覆盖偏远地区并支持手机直连等拓展功能。STARLINK-3842作为星座组网的组成部分,承担着增强全球网络覆盖能力、提升星座服务稳定性的作用,是星链系统部署扩张过程中的一颗典型卫星。

基本信息
目录编号:
52481
目录名称:
STARLINK-3842
国际标识:
2022-049AG
轨道中心:
EARTH
卫星名称:
星链-3842
卫星全名:
星链-3842 (STARLINK-3842 )
卫星状态:
已陨落 最后检测时间 2024-12-16
发射日期:
2022-05-06 UTC
国别 :
美国 (US)
星等 :
--
轨道信息
数据来源 国际轨道数据
星历时间: 2024-12-17T09:27:55+0800
轨道信息已过期547天
半长轴: 6523.32km
偏心率: 0.0002364
轨道倾角: 53.197°
近地点辐角 181.443°
升交点赤经 247.764°
平近点角 251.306°
近地点: 143.642km
远地点: 146.728km
周期: 87.390分钟
每日圈数: 16.477822
详细信息
固有亮度:
5
最大亮度:
2.5
卫星平台:
Starlink v1.5
覆盖范围:
全球
运营商:
太空探索技术公司
运营商所在国:
美国
制造商(研发单位):
太空探索技术公司
制造商所在国:
美国
使用方式:
暂无
卫星简介
星链(Starlink)计划是由太空探索技术公司(SpaceX)提出的一个巨型低轨卫星互联网星座项目,计划在2019年至2024年间在太空搭建由约1.2万颗卫星组成的“星链”网络,其中1584颗将部署在地球上空550千米处的近地轨道,并从2020年开始工作。该卫星仍在工作。